Location: Podia
(1.5569°N, 32.3469°E)
Time: 13:15:15
(UTC+00:00)

Vanguard 3 - Visible Passes

Search period start: 26 September 2020 00:00
Search period end: 06 October 2020 00:00
Orbit: 508 x 3262 km, 33.3° (Epoch: 25 September)

Date Brightness Start Highest point End Pass type
(mag) Time Alt. Az. Time Alt. Az. Time Alt. Az.
26 Sep 10.6 00:20:42 30° S 00:20:42 30° S 00:32:57 10° SSE visible
26 Sep 11.1 02:27:27 10° SW 02:38:12 17° S 02:49:35 10° SSE visible
26 Sep 11.0 23:10:33 21° SSE 23:10:33 21° SSE 23:15:53 10° SE visible
27 Sep 10.8 01:15:05 20° SSW 01:18:53 21° SSW 01:32:08 10° SSE visible
28 Sep 10.7 00:04:54 25° S 00:04:54 25° S 00:14:55 10° SSE visible
28 Sep 11.1 02:12:15 10° SW 02:22:08 16° S 02:32:42 10° SSE visible
28 Sep 11.1 22:54:40 16° SSE 22:54:40 16° SSE 22:57:50 10° SE visible
29 Sep 10.9 00:59:12 17° SSW 01:02:43 18° SSW 01:14:22 10° SSE visible
29 Sep 11.4 03:15:33 10° SSW 03:26:06 16° S 03:36:23 10° SE visible
29 Sep 10.9 23:48:57 20° S 23:48:57 20° S 23:56:47 10° SSE visible
30 Sep 11.2 01:57:01 10° SSW 02:06:07 15° S 02:15:59 10° SSE visible
30 Sep 11.3 22:38:42 12° SSE 22:38:42 12° SSE 22:39:43 10° SSE visible
01 Oct 10.9 00:43:13 15° SSW 00:46:41 16° S 00:56:33 10° SSE visible
01 Oct 11.4 02:58:54 10° SSW 03:10:01 17° S 03:20:59 10° SE visible
01 Oct 11.0 23:32:56 16° S 23:32:56 16° S 23:38:31 10° SSE visible
02 Oct 11.2 01:41:38 10° SSW 01:50:09 15° S 01:59:27 10° SSE visible
03 Oct 11.0 00:27:11 13° SSW 00:30:45 14° S 00:38:41 10° SSE visible
03 Oct 11.3 02:42:08 10° SSW 02:53:49 18° SSE 03:05:35 10° SE visible
03 Oct 11.1 23:16:55 13° S 23:16:55 13° S 23:20:03 10° SSE visible
04 Oct 11.2 01:26:02 10° SSW 01:34:11 14° S 01:43:10 10° SE visible
05 Oct 11.1 00:11:11 11° SSW 00:14:54 12° S 00:20:42 10° SSE visible
05 Oct 11.3 02:25:16 10° SSW 02:37:30 20° SSE 02:50:07 10° ESE visible
05 Oct 11.2 23:00:57 10° SSE 23:00:57 10° SSE 23:01:01 10° SSE visible
